Probability
16 17 19 20 20 20 17 14 13 13 13 11 9 7 5 5 5 4 4 4 3 3 5 6 6 5 4 4 6 5 4 3 4 4 3 1 0 1 2 2 1 0 0
15 16 17 18 19 18 16 14 13 13 13 11 8 6 5 5 4 3 3 3 2 1 3 5 5 4 3 3 4 4 3 3 3 3 2 1 0 1 2 2 1 0 0
12 13 13 14 15 14 13 12 11 11 11 9 7 5 4 4 3 3 3 2 1 0 1 2 3 2 2 3 3 3 3 3 3 3 1 0 0 1 1 1 0 0 0
10 10 10 10 11 10 9 8 7 7 6 5 4 3 3 2 2 2 1 1 0 0 0 0 1 1 1 2 3 3 3 3 3 2 1 0 0 0 0 0 0 0 0
7 7 8 8 8 8 6 5 5 3 2 2 1 1 1 1 0 0 0 0 0 0 0 0 1 1 1 1 1 2 1 1 3 2 1 0 0 0 0 0 0 0 0
5 4 4 5 5 5 5 5 5 3 1 1 1 1 1 1 0 0 0 0 0 0 0 1 1 0 0 0 0 0 0 1 2 2 1 0 0 0 0 0 0 0 0
4 3 2 2 4 4 5 6 5 2 1 2 3 3 3 2 0 0 0 0 0 0 1 1 1 1 0 1 1 0 0 0 1 1 1 0 0 0 0 0 0 0 0
3 3 2 2 3 5 6 6 4 2 2 3 4 5 4 2 0 0 0 0 0 1 1 1 2 1 1 1 1 0 0 0 0 0 0 0 0 0 0 0 0 0 0
3 3 3 3 4 5 7 6 6 5 5 4 5 6 4 2 0 0 0 0 0 0 0 1 1 1 0 1 1 0 0 0 0 0 0 0 0 0 0 0 0 0 0
3 3 3 3 4 4 6 7 9 9 7 5 5 6 5 2 0 0 0 0 0 0 0 0 0 0 0 0 0 0 0 0 0 0 0 0 1 1 1 0 0 0 0
3 2 2 3 3 3 5 8 10 10 7 5 5 5 4 1 0 0 0 0 0 0 0 0 0 0 0 0 0 0 0 0 0 0 1 1 2 2 2 2 2 1 0
3 2 2 3 3 3 5 7 8 8 7 6 5 4 3 1 0 0 0 0 0 0 0 0 0 0 0 0 0 0 0 0 1 1 2 3 3 3 4 3 3 3 2
3 3 4 5 5 6 6 6 5 6 7 6 5 3 2 1 0 0 0 0 0 0 0 0 0 0 0 0 0 0 1 1 2 3 3 3 2 3 4 4 3 3 2
4 4 4 4 5 7 7 5 4 4 4 4 3 2 1 0 0 0 0 0 0 0 0 0 0 0 0 0 1 1 2 2 2 2 2 2 1 1 1 1 1 1 1
4 3 2 2 2 4 5 4 2 1 1 1 1 1 0 0 0 0 0 0 0 0 0 1 1 1 0 0 1 2 2 1 1 1 1 1 0 0 0 1 1 1 0
5 3 2 1 1 2 2 1 0 0 0 0 0 0 0 0 0 0 0 0 0 0 0 1 2 1 1 1 1 1 1 0 0 0 1 1 0 0 0 1 2 1 1
5 3 2 2 1 0 0 0 0 0 0 0 0 0 0 0 0 0 0 0 0 0 0 1 1 1 1 1 0 0 0 0 0 1 2 1 0 0 0 1 1 1 0
2 2 1 1 1 0 0 0 0 0 0 0 0 0 0 0 0 0 0 0 0 0 0 0 0 0 0 0 0 0 0 0 0 1 2 1 0 0 0 0 0 0 0
0 0 0 0 0 0 0 0 0 0 0 0 0 0 0 0 0 0 0 0 0 0 0 0 0 0 0 0 0 0 0 0 0 1 1 1 0 0 0 0 0 0 0
0 0 0 0 0 0 0 0 0 0 0 0 0 0 0 0 0 0 0 0 0 0 0 0 0 0 0 0 0 0 0 0 0 0 0 0 0 0 0 0 0 0 0
0 0 0 0 0 0 0 0 0 0 0 0 0 0 0 0 0 0 0 0 0 0 0 0 0 0 0 0 0 0 0 0 0 0 0 0 0 0 0 0 0 0 0
0 0 0 0 0 0 0 0 0 0 0 0 0 0 0 0 0 0 0 0 0 0 0 0 0 0 0 0 0 0 0 0 0 0 0 0 0 0 0 0 0 0 0
0 0 0 0 0 0 0 0 0 0 0 0 0 0 0 0 0 0 0 0 1 0 0 0 0 0 0 0 0 0 0 0 0 0 0 0 0 0 0 0 0 0 0
0 0 0 0 0 0 0 0 0 0 0 0 0 0 0 0 0 0 0 0 0 0 0 0 0 0 0 0 0 0 0 0 0 0 0 0 0 0 0 0 0 0 0
0 0 0 0 0 0 0 0 0 0 0 0 0 0 0 0 0 0 0 0 0 0 0 0 0 0 0 0 0 0 0 0 0 0 0 0 0 0 0 0 0 0 0
0 0 0 0 0 0 0 0 0 0 0 0 0 0 0 0 0 0 0 0 0 0 0 0 0 0 0 0 0 0 0 0 0 0 0 0 0 0 0 0 0 0 0
Wind_Speed
1 1 1 1 2 2 2 2 1 1 1 2 2 2 2 3 2 2 4 3 3 3 4 4 3 3 3 3 2 2 2 2 4 4 3 3 3 3 2 3 3 4 4
1 1 1 0 1 2 2 2 1 1 1 1 2 2 3 3 2 3 4 3 3 4 3 4 4 3 3 3 3 3 3 3 3 5 4 3 3 3 3 3 3 3 3
0 1 1 1 1 2 3 2 1 2 2 2 2 2 3 2 2 3 3 3 4 3 3 4 4 4 4 3 3 3 3 4 3 4 5 3 2 2 2 3 3 2 4
1 1 1 1 1 2 3 2 2 2 2 2 2 2 2 2 2 3 3 3 4 4 4 4 4 4 4 4 4 3 3 3 3 3 4 3 3 2 1 2 2 2 3
2 2 2 1 1 2 2 3 2 2 3 2 2 2 2 2 2 3 4 4 4 4 4 4 4 4 4 4 4 3 3 3 3 3 4 3 3 2 2 2 2 2 3
2 3 2 2 2 2 2 2 2 2 2 2 2 2 2 2 3 4 4 5 4 4 5 4 4 3 4 5 6 6 5 4 4 4 4 4 4 3 3 3 2 2 2
2 3 2 2 2 2 3 2 2 2 2 2 2 2 2 2 3 4 5 4 4 4 4 4 5 4 4 3 4 6 6 8 9 6 5 6 5 4 3 4 3 3 4
2 2 3 3 2 2 2 2 2 2 2 2 2 2 2 2 3 4 5 4 4 4 4 4 4 4 5 3 4 4 4 5 6 5 5 6 6 4 4 4 4 4 4
3 3 3 3 2 2 2 2 2 2 3 3 3 3 2 2 3 3 3 3 3 4 4 4 4 3 2 3 3 4 5 5 6 5 6 7 8 8 5 3 3 3 4
3 3 3 3 3 3 2 3 3 3 3 4 3 2 3 2 3 3 3 3 3 3 3 2 2 2 2 2 3 4 5 5 5 6 6 7 6 6 7 5 4 4 3
3 3 3 3 3 3 2 3 2 3 3 4 3 3 3 2 2 2 3 2 3 4 3 3 2 2 4 4 4 4 6 6 5 6 5 5 4 3 4 5 5 4 4
3 3 3 3 4 3 2 2 3 3 3 3 3 3 2 2 1 2 3 4 4 4 4 3 3 6 7 8 6 7 8 6 4 4 4 4 4 3 3 4 5 5 5
3 3 3 3 3 3 3 2 2 2 2 3 2 2 1 1 1 1 2 4 5 4 4 6 8 9 9 7 9 9 6 4 4 4 4 4 3 3 3 3 3 4 4
3 3 3 3 3 2 2 2 2 2 2 2 2 1 1 1 2 1 2 3 4 4 4 7 9 9 8 8 7 4 4 4 3 4 4 4 3 2 2 2 3 3 3
3 3 3 4 3 2 1 1 2 1 1 1 2 2 2 2 2 3 3 3 3 4 5 4 4 4 4 3 3 2 2 2 3 3 4 4 4 3 3 3 2 3 3
3 3 3 3 2 2 2 1 0 1 1 1 1 2 2 1 3 5 6 5 5 4 3 4 4 4 4 4 4 3 2 2 2 3 3 3 4 4 4 3 3 3 3
3 3 3 4 3 2 2 2 2 1 1 1 2 2 3 4 5 6 6 7 7 3 2 4 4 3 4 4 4 3 3 4 3 3 3 3 3 4 4 3 3 3 3
3 3 4 4 3 2 2 2 2 1 1 2 3 5 6 7 7 7 5 4 4 2 2 3 3 3 3 3 3 3 3 3 3 3 3 3 4 4 4 4 4 4 4
3 3 3 3 3 3 3 2 2 1 1 1 0 2 5 7 6 7 4 3 4 4 3 3 3 3 3 3 3 3 3 4 4 4 4 4 4 4 4 4 4 5 4
3 5 4 3 3 3 3 2 2 1 1 1 1 1 0 1 2 2 2 2 3 4 4 4 3 4 4 4 4 4 4 5 5 5 5 5 5 5 5 5 5 4 4
4 3 4 3 3 3 2 2 2 2 2 2 1 1 1 1 2 2 1 1 2 3 3 3 4 4 4 4 4 5 6 5 5 6 5 5 6 6 5 4 4 4 4
5 3 2 2 2 2 2 2 3 2 2 2 2 1 0 2 3 2 2 1 2 2 3 3 4 4 5 5 5 5 5 6 6 6 7 7 6 6 6 5 5 4 4
4 4 2 2 2 1 2 2 2 3 3 3 3 2 1 2 2 2 3 3 2 2 2 3 3 4 4 4 5 5 5 6 6 7 7 7 7 6 6 6 6 6 5
4 4 3 2 2 1 2 2 2 3 3 2 2 2 2 2 2 3 3 3 3 3 3 3 3 5 6 5 4 5 5 5 6 6 8 8 8 7 5 6 6 6 5
4 3 3 2 2 2 2 2 2 3 3 3 3 2 2 2 2 3 3 3 4 4 4 4 3 4 6 7 7 6 6 6 6 6 7 7 8 8 7 7 6 6 6
4 3 3 2 2 1 1 2 2 2 2 2 2 2 2 2 2 3 3 3 3 3 3 3 5 6 7 6 7 6 5 6 7 8 7 6 7 6 7 6 7 6 6
Wind_Direction
183 208 246 260 274 270 267 263 261 274 269 271 277 273 274 275 275 271 271 267 262 264 269 276 276 275 284 281 280 278 273 267 278 287 280 273 258 253 234 229 220 217 215
191 175 171 231 292 287 284 284 290 274 272 278 273 267 270 274 268 267 271 275 273 273 279 285 288 286 278 274 277 279 279 273 271 283 286 278 264 248 229 235 238 228 217
237 198 211 235 289 302 285 274 264 259 259 272 272 270 277 281 273 270 273 280 280 279 277 279 280 280 280 279 278 278 279 285 276 279 287 283 275 261 244 250 252 247 237
332 302 282 257 270 295 293 287 278 278 280 271 274 280 281 291 303 301 292 284 284 286 282 277 276 276 276 281 282 277 283 288 287 287 289 291 285 275 260 251 257 245 251
314 291 282 260 232 254 275 282 278 282 290 301 305 299 297 306 337 332 311 298 300 295 290 281 272 280 282 279 288 287 291 287 289 289 291 300 295 296 280 264 260 247 253
296 289 280 276 267 258 256 256 259 264 281 291 298 311 321 322 329 325 319 303 296 293 293 288 274 276 279 266 264 264 261 268 278 281 284 288 288 282 278 279 276 278 269
291 289 287 275 274 275 272 262 266 275 280 284 285 292 298 327 316 319 313 295 290 290 290 291 294 298 295 286 278 266 266 261 250 249 264 271 274 272 272 277 272 274 269
292 305 303 282 278 275 273 259 253 263 265 262 269 268 280 299 312 316 309 282 285 287 288 288 288 286 298 310 303 302 294 289 275 251 251 263 272 272 266 265 265 274 266
312 305 298 296 288 273 267 275 266 259 263 259 257 261 267 269 282 290 299 286 290 296 297 304 300 302 329 318 296 300 302 301 300 284 267 266 271 269 262 272 273 269 274
303 297 301 305 298 276 259 258 260 255 258 263 263 267 272 263 264 279 289 280 297 305 306 308 327 327 321 310 294 296 295 298 311 311 298 282 268 259 244 225 243 261 274
300 299 306 304 297 287 267 264 263 261 265 263 267 257 246 233 222 237 253 268 296 303 309 315 316 313 295 287 279 271 272 289 296 289 287 283 271 256 237 227 227 234 246
295 300 305 302 298 296 284 277 268 261 264 265 269 266 228 210 226 238 253 257 282 296 301 308 317 315 301 290 278 266 276 292 279 281 285 288 285 277 267 252 234 229 234
288 296 294 292 290 285 272 274 273 261 262 269 265 268 261 188 196 246 261 273 279 279 296 309 306 294 293 284 270 265 264 256 259 272 280 282 278 276 281 281 273 255 250
285 280 273 275 271 271 282 291 280 291 292 294 302 315 338 24 26 6 322 299 290 287 301 300 291 281 276 275 275 258 244 248 254 272 283 287 290 289 286 284 282 276 264
286 272 270 266 254 251 244 317 315 338 333 323 338 339 348 344 336 317 305 308 324 328 312 294 290 293 292 286 283 275 268 268 273 276 281 289 292 290 282 275 277 282 278
285 281 279 273 255 242 213 199 6 228 153 87 14 348 355 326 313 322 318 311 310 315 305 285 294 302 310 317 317 319 311 308 305 302 300 300 304 304 302 299 294 287 288
283 283 284 281 274 261 239 227 217 203 232 270 284 274 255 279 298 305 306 315 310 302 276 286 300 314 325 328 327 335 327 317 314 316 312 314 315 309 306 302 295 289 284
285 281 279 282 283 279 264 251 238 222 224 228 238 241 249 260 274 283 298 324 307 282 272 286 303 318 321 318 321 329 330 335 338 331 325 326 323 318 315 309 302 294 292
293 285 274 283 283 283 279 276 276 263 276 286 260 238 247 256 265 276 277 278 294 306 309 309 320 321 321 318 319 331 340 343 344 339 338 336 326 318 313 311 310 308 297
271 273 273 281 293 292 292 308 331 325 304 305 300 334 342 249 261 269 243 259 282 303 317 324 334 336 339 340 344 350 353 351 347 347 344 336 327 317 313 311 314 316 313
283 266 239 265 284 292 304 320 324 318 319 323 338 15 348 279 285 291 287 294 309 322 334 341 344 344 349 347 353 355 357 359 354 346 338 329 325 321 315 314 317 319 318
285 284 259 259 273 301 321 317 307 311 314 323 331 345 212 300 321 329 354 12 10 1 2 354 345 352 2 357 355 357 360 358 350 341 333 328 326 325 324 322 322 319 318
277 278 261 260 271 298 287 297 313 323 329 330 329 347 0 329 338 1 11 24 22 7 3 360 360 6 6 4 7 16 8 357 342 330 325 320 319 317 317 319 322 324 323
273 276 270 264 261 272 284 298 317 322 323 329 342 346 346 356 3 13 20 19 10 10 11 11 20 19 14 15 19 27 23 357 335 324 323 313 311 313 318 320 320 324 323
275 273 276 269 268 270 280 307 319 322 335 349 348 348 351 2 12 16 13 12 7 11 10 14 22 16 16 28 27 22 13 356 346 334 320 312 313 320 324 325 326 327 329
282 287 286 277 279 290 298 306 309 321 334 336 340 352 352 2 11 10 14 14 7 8 8 21 30 25 23 31 31 28 13 352 342 334 320 308 314 326 331 327 328 330 332